{"data":{"norad_id":68999,"intl_designator":"2026-100V","name":"FOREST-18 (MANGOSHRIKH*)","alt_names":[],"object_type":"PAYLOAD","status":"ACTIVE","operator":null,"country":"GREC","launch_date":"2026-05-03","launch_site_code":"AFWTR","launch_vehicle":null,"mission":null,"orbit_class":"UNKNOWN","rcs_meters":null,"size_class":null,"mass_kg":null,"dimensions":null,"purposes":[],"wikipedia_slug":null,"has_3d_model":false,"image_url":null,"decayed_at":null,"tle_current":{"epoch":"2026-09-19T12:26:23.466624Z","epoch_age_seconds":104254,"freshness":"FRESH","line1":"1 68999U 26100V   26262.51832716  .00000976  00000+0  99482-4 0  9998","line2":"2 68999  97.7191 158.2403 0000600  85.6279 274.5009 14.92913980 20772","mean_motion":14.9291398,"eccentricity":6.0e-5,"inclination_deg":97.7191,"raan_deg":158.2403,"arg_perigee_deg":85.6279,"mean_anomaly_deg":274.5009,"bstar":9.9482e-5,"rev_number":2077,"period_min":96.455657813587,"perigee_km":588.43708015743,"apogee_km":589.27311920939,"semimajor_km":6966.9920996834,"source":"CELESTRAK","updated_at":"2026-09-20T09:00:24.625210Z"}}}